Location: Unspecified
(41.1850°N, 73.2650°W)
Time: 16:41:06
(UTC+00:00)

COSMO-SKYMED 1 - Visible Passes

Search period start: 14 March 2026 00:00
Search period end: 24 March 2026 00:00
Orbit: 576 x 579 km, 97.9° (Epoch: 14 March)

Date Brightness Start Highest point End Pass type
(mag) Time Alt. Az. Time Alt. Az. Time Alt. Az.
14 Mar 5.8 00:49:06 10° NW 00:50:39 12° WNW 00:52:12 10° W visible
14 Mar 4.0 10:00:27 10° SE 10:04:15 39° ENE 10:08:05 10° N visible
15 Mar 6.0 00:53:45 10° NW 00:54:45 11° WNW 00:55:44 10° WNW visible
15 Mar 3.8 10:04:29 10° SE 10:08:22 43° ENE 10:12:16 10° N visible
15 Mar 2.4 23:20:05 10° NNE 23:24:12 76° ESE 23:28:17 10° S visible
16 Mar 3.6 10:08:33 10° SSE 10:12:29 48° ENE 10:16:27 10° N visible
16 Mar 2.4 23:24:12 10° NNE 23:28:19 85° ESE 23:32:25 10° SSW visible
17 Mar 3.3 10:12:36 10° SSE 10:16:35 54° ENE 10:20:36 10° N visible
17 Mar 2.5 23:28:18 10° NNE 23:32:26 87° WNW 23:36:32 10° SSW visible
18 Mar 3.1 10:16:39 10° SSE 10:20:40 60° ENE 10:24:43 10° N visible
18 Mar 2.6 23:32:25 10° N 23:36:32 78° WNW 23:40:37 10° SSW visible
19 Mar 2.9 10:20:43 10° SSE 10:24:46 67° ENE 10:28:51 10° N visible
19 Mar 2.8 23:36:31 10° N 23:40:37 70° WNW 23:44:40 10° SSW visible
20 Mar 2.7 10:24:46 10° SSE 10:28:51 75° ENE 10:32:57 10° N visible
20 Mar 3.0 23:40:38 10° N 23:44:42 62° WNW 23:48:44 10° SSW visible
21 Mar 3.3 23:44:43 10° N 23:48:45 56° WNW 23:52:45 10° SSW visible
22 Mar 3.5 23:48:49 10° N 23:52:47 50° WNW 23:56:45 10° SSW visible
